Theta_e
347 345 344 350 348 349 349 349 351 345 350 344 345 346 348 351 350 348 347 350 349 352 352 352 351 353 352 353 351 353 348 342 344 350 351 352 352 348 346 351 351 350 349
346 347 345 346 350 349 351 346 347 351 347 341 341 345 348 350 349 349 348 349 350 352 353 352 352 350 352 353 352 348 341 349 348 350 353 352 349 347 350 352 351 348 350
350 348 347 344 350 350 343 350 347 350 352 346 342 342 343 350 349 348 349 350 352 352 352 352 352 352 348 348 351 351 351 343 342 349 346 349 351 350 350 351 351 350 349
345 347 343 345 348 349 346 350 350 352 349 352 351 348 345 345 349 343 343 349 351 351 351 352 352 351 344 346 348 349 348 349 344 344 349 349 350 350 351 351 350 349 349
348 345 340 342 346 350 350 352 352 349 349 351 351 350 345 345 349 346 345 346 345 351 351 352 352 351 343 337 344 347 347 347 348 348 339 344 350 350 344 349 350 350 347
348 343 341 342 351 350 351 352 351 348 348 349 350 347 348 347 348 348 346 346 343 351 351 352 352 351 334 337 341 344 346 347 349 344 338 335 346 352 352 349 350 347 346
348 341 341 345 348 347 351 348 350 352 349 349 348 347 346 347 348 346 348 344 351 351 351 351 349 344 335 339 344 345 345 348 339 337 335 331 346 350 351 349 347 345 347
343 346 347 346 346 342 350 347 349 349 335 340 347 349 348 347 347 350 348 351 350 351 350 350 345 338 343 343 344 346 347 349 348 346 333 345 347 349 351 350 349 348 349
348 343 343 345 348 348 348 349 343 338 339 339 339 348 344 344 349 347 351 351 349 350 351 350 339 335 339 342 343 344 345 348 347 346 337 342 346 350 351 349 346 349 349
346 342 339 338 345 344 339 338 335 331 336 334 334 345 341 341 348 348 350 349 349 350 349 348 336 333 337 341 343 343 345 347 347 345 339 340 346 348 349 348 346 348 346
345 342 342 338 332 335 330 328 330 328 330 336 338 345 343 341 346 350 345 351 349 350 350 349 343 332 330 335 338 338 343 347 348 346 339 340 343 350 349 349 349 344 346
344 343 343 343 342 342 341 343 344 336 337 338 343 349 348 344 349 347 350 350 352 350 351 350 350 342 333 329 328 335 340 345 343 342 333 339 342 347 347 345 347 345 347
343 343 343 343 342 342 343 345 344 348 349 348 351 349 347 348 348 349 349 350 351 352 349 350 348 345 343 345 344 339 337 345 347 337 330 332 331 343 349 345 345 345 346
341 340 341 342 341 342 341 346 346 346 349 349 350 350 350 351 348 351 346 347 349 349 350 346 341 339 346 347 347 346 346 346 346 343 335 336 332 330 338 345 344 345 343
340 341 340 343 347 345 346 350 346 348 348 350 351 351 351 352 348 350 345 349 347 348 348 346 347 344 346 347 346 345 345 346 346 344 333 340 335 333 332 333 347 345 341
340 340 339 343 345 348 348 350 348 348 350 350 353 351 353 352 350 349 348 349 348 349 349 348 348 348 347 346 347 345 345 346 346 342 335 339 339 338 342 338 339 341 346
339 341 340 345 345 346 347 353 351 349 350 350 352 354 352 354 352 350 350 350 351 349 350 350 349 349 346 347 348 346 346 347 348 345 342 338 339 338 341 342 338 342 347
341 341 343 348 348 348 350 350 353 352 353 353 354 354 352 354 353 351 351 351 351 351 349 349 347 348 348 347 346 346 349 347 348 349 346 345 341 341 342 343 345 345 347
342 344 345 345 348 349 351 351 353 353 353 353 352 354 352 350 351 351 351 352 352 349 349 349 348 348 349 349 348 347 347 347 348 349 348 347 348 347 347 342 343 343 346
342 344 343 344 348 351 353 352 353 353 354 356 354 355 354 351 349 349 353 353 349 347 348 349 349 347 347 348 348 347 346 346 345 346 342 345 346 344 340 345 347 343 340
343 342 343 347 348 352 352 354 354 353 353 355 355 356 354 351 350 349 353 351 348 350 350 349 349 348 345 347 348 346 346 345 345 343 340 342 343 342 343 345 347 348 345
342 342 345 347 351 353 352 351 352 352 353 354 352 353 353 352 353 351 352 352 350 350 344 350 350 350 347 350 347 348 348 349 347 345 347 346 343 341 342 342 343 345 345
344 342 343 351 351 352 351 351 352 353 353 353 341 349 351 357 356 351 354 353 352 352 349 352 351 350 351 349 349 348 346 347 349 350 348 347 346 343 342 342 341 342 343
351 348 348 355 352 353 352 352 354 354 353 352 351 346 352 355 355 355 353 354 352 351 348 349 351 353 350 349 350 350 350 348 346 348 350 349 348 347 345 346 347 349 347
353 353 351 350 354 352 350 352 354 354 355 354 353 349 341 349 354 357 356 355 354 352 350 345 351 351 352 350 352 351 352 351 352 347 349 351 351 350 350 348 348 348 348
350 352 350 350 355 353 350 352 356 349 350 351 341 339 344 348 350 353 356 356 353 351 350 350 351 353 353 353 353 355 353 353 352 352 346 349 351 350 350 351 350 349 349
Wind_Speed
18 18 16 15 14 14 15 14 15 16 13 16 16 14 14 14 14 14 15 16 15 15 15 16 17 19 18 19 20 21 24 25 27 25 23 19 19 23 23 24 23 24 23
23 20 17 16 14 15 13 14 14 14 14 16 16 14 14 14 12 13 14 15 15 14 15 16 17 17 17 18 18 20 22 24 25 23 20 21 19 19 22 22 21 22 22
23 22 18 17 16 15 13 13 14 14 13 15 16 16 13 13 12 11 13 14 14 15 15 15 15 15 14 16 16 16 18 20 21 21 19 21 20 21 20 20 20 20 20
26 22 21 18 17 14 14 13 13 12 13 13 13 16 15 12 12 11 12 15 15 16 15 15 15 14 15 14 15 16 17 17 20 20 20 18 17 17 18 18 18 19 19
26 23 22 19 17 15 13 12 12 12 12 11 12 14 15 14 12 13 15 16 17 17 15 14 14 13 14 16 16 14 12 10 10 8 14 16 18 15 16 18 18 17 18
28 24 23 19 18 16 13 11 11 12 11 10 10 11 12 15 13 16 17 17 19 17 16 15 14 11 14 18 14 11 10 7 10 21 18 15 18 14 15 14 14 14 15
27 26 23 19 18 17 14 10 8 11 11 8 9 8 10 12 14 15 16 18 18 17 16 14 13 14 15 14 12 11 13 16 20 19 15 18 15 14 15 15 14 13 13
30 26 23 21 18 16 14 13 9 8 9 8 8 7 8 9 12 13 15 15 16 16 15 13 12 15 14 11 10 15 16 13 17 15 15 16 15 14 13 14 14 13 14
29 27 23 20 17 15 14 12 11 7 6 6 6 6 7 8 8 12 13 14 14 14 14 13 13 14 13 11 10 9 13 13 17 12 15 15 13 13 12 13 12 13 12
24 24 23 20 18 16 14 11 9 7 6 5 6 5 6 8 8 10 13 14 14 14 13 11 11 11 12 11 11 8 8 7 15 12 15 15 15 12 11 12 11 11 12
27 23 21 17 16 14 12 8 8 7 7 7 7 7 8 10 13 11 14 14 14 14 14 12 10 9 10 10 8 4 5 12 16 14 13 15 15 12 11 10 11 11 9
27 26 23 19 16 17 15 11 7 9 7 8 9 8 4 9 11 14 12 15 15 14 14 13 11 9 9 9 6 5 2 8 11 10 15 15 15 14 12 12 11 11 11
25 27 26 25 18 20 22 12 9 10 10 8 7 10 6 9 11 15 15 17 16 16 15 14 13 11 9 7 5 5 6 4 6 15 17 16 14 14 13 11 10 11 11
22 24 26 26 24 22 20 13 9 9 13 15 13 10 9 9 13 16 16 16 20 19 18 16 14 11 9 10 11 10 5 3 14 17 18 16 14 14 13 12 10 9 9
26 20 20 14 19 21 16 10 13 10 13 17 17 12 11 10 13 17 18 16 16 17 18 16 13 13 12 9 8 11 2 3 17 18 17 14 13 13 13 13 12 11 11
26 20 20 16 17 19 13 8 13 12 12 12 17 12 11 9 11 16 19 17 18 19 17 18 16 13 14 15 10 13 8 8 7 15 16 15 13 12 12 12 12 12 11
27 22 22 23 17 16 14 10 10 12 10 12 13 11 12 11 11 14 15 17 16 22 19 16 16 14 12 11 10 9 9 9 6 9 16 16 12 11 12 12 12 13 12
27 26 26 22 15 18 14 13 9 11 8 8 11 11 11 15 11 12 11 13 14 15 15 17 15 13 12 11 11 9 13 9 10 12 15 12 12 11 11 12 13 13 13
29 27 26 22 21 21 18 13 11 9 10 11 9 12 8 11 13 14 11 12 13 16 13 16 16 15 11 11 7 9 11 10 9 15 15 8 12 10 11 13 14 16 17
31 33 27 25 29 24 21 17 14 11 12 9 7 15 12 7 7 11 11 12 9 12 13 13 16 15 14 10 9 9 12 10 10 11 7 6 11 15 20 17 18 19 18
34 30 29 23 30 28 25 20 17 17 12 14 8 11 10 6 7 10 8 12 11 10 12 13 11 13 13 10 9 7 8 13 17 18 18 17 19 21 21 17 19 20 18
35 33 27 22 31 29 25 21 20 20 15 11 7 8 8 9 10 11 8 11 14 13 10 15 15 13 12 13 7 7 1 4 12 15 16 19 23 25 25 24 22 22 22
33 33 28 23 31 26 20 15 18 16 11 14 8 15 13 11 10 10 9 8 15 15 13 16 15 13 10 13 11 3 2 3 4 9 18 19 21 25 27 26 27 27 29
30 34 30 22 32 27 22 15 14 15 12 15 6 8 7 10 12 10 10 8 9 9 11 15 15 12 11 8 13 18 9 4 3 1 9 19 18 19 22 22 22 20 21
36 36 35 29 26 24 21 18 14 19 14 8 9 12 17 13 13 11 10 10 11 7 7 12 13 10 13 7 10 6 12 9 6 2 2 6 17 20 22 23 24 23 19
36 35 36 35 30 25 20 21 13 17 12 9 12 6 5 4 12 6 9 9 10 5 5 10 7 9 10 8 7 7 3 2 1 7 4 3 9 10 18 21 19 21 19
Wind_Direction
144 138 131 126 117 103 98 95 91 86 75 77 78 84 93 92 91 98 102 108 107 104 101 101 98 99 99 99 101 104 106 107 105 102 100 101 106 108 103 105 104 104 102
146 142 135 129 121 112 105 99 89 81 79 79 83 87 98 98 97 100 105 110 113 111 108 106 104 104 108 105 107 106 112 112 110 105 104 97 108 116 111 104 104 104 104
139 139 139 128 123 117 111 103 96 86 74 78 81 81 91 103 101 106 111 113 116 113 113 112 110 108 111 116 114 118 118 115 111 111 105 99 99 105 100 105 103 103 101
138 141 140 136 126 123 115 108 101 94 84 75 77 79 81 100 103 103 116 122 121 116 114 114 113 111 112 115 123 122 124 125 118 98 105 106 102 105 111 109 109 108 105
142 145 143 139 131 125 119 114 107 98 87 80 75 75 73 90 97 102 118 121 127 118 116 119 117 117 120 125 122 113 110 124 146 98 120 117 109 110 113 112 107 108 105
150 150 145 142 136 130 128 119 115 103 95 90 88 76 76 73 105 105 115 121 123 117 116 118 117 120 128 132 120 106 87 92 120 134 122 117 112 103 109 106 114 114 119
147 146 146 145 143 139 139 132 123 115 108 96 90 84 83 81 89 103 118 121 123 122 116 119 121 125 133 133 121 100 81 107 124 126 119 121 113 110 112 116 116 121 116
145 147 148 149 150 147 144 139 137 127 121 117 105 98 95 94 98 118 125 128 131 129 126 121 119 131 135 133 113 97 99 114 134 120 124 120 115 117 121 125 120 121 123
148 151 152 150 152 155 151 152 147 148 144 131 127 122 112 117 122 124 138 139 143 139 137 133 129 134 145 140 126 111 111 107 138 130 128 126 126 125 124 122 129 130 127
151 153 154 156 160 162 162 163 165 171 181 167 148 143 159 143 140 144 150 152 153 155 154 152 143 134 145 150 146 133 100 114 143 140 140 139 137 134 133 138 135 130 125
152 154 159 163 168 169 170 176 173 188 189 185 169 156 138 151 149 162 158 164 167 166 168 172 173 162 153 156 163 145 112 90 166 156 147 145 141 140 143 137 143 137 138
161 164 170 172 171 174 194 184 175 179 187 182 191 213 164 150 156 163 171 172 175 175 175 176 182 185 193 199 194 199 131 113 177 191 163 154 149 150 146 148 150 153 154
169 174 184 182 180 187 197 192 188 185 192 198 203 208 171 160 161 169 176 176 181 181 184 185 184 192 188 182 236 270 279 306 241 194 168 165 161 158 155 152 153 153 158
178 186 194 191 191 190 187 185 174 191 208 217 203 184 174 177 172 176 182 181 184 189 188 199 199 193 196 231 240 256 263 39 178 199 176 173 164 162 164 162 165 168 165
185 193 178 169 147 171 180 187 202 200 201 199 196 189 172 182 185 189 183 184 186 190 192 199 196 198 212 222 223 235 154 71 187 192 177 181 170 168 168 175 175 179 180
185 195 193 185 170 161 174 149 180 184 173 169 180 184 176 177 182 187 187 191 193 197 199 203 202 214 229 225 234 224 206 178 204 182 183 185 181 184 182 183 196 196 191
180 184 189 180 186 196 187 177 191 192 180 188 187 184 170 182 182 183 188 202 206 204 201 202 211 215 211 219 239 229 218 159 168 188 188 192 185 194 199 205 204 209 202
181 188 195 178 173 176 184 194 201 174 198 206 218 195 182 181 182 186 196 198 201 207 205 202 195 207 223 228 236 225 212 188 159 172 182 186 197 204 215 220 222 220 218
174 181 174 184 180 177 183 190 195 198 224 201 213 199 193 190 182 183 186 188 191 191 194 187 197 211 216 225 226 206 197 214 182 155 157 173 202 211 226 237 236 237 228
180 179 189 192 183 180 181 180 201 212 230 233 217 196 196 208 189 179 179 192 191 180 184 193 210 212 221 229 229 232 227 232 242 242 186 212 222 226 246 238 240 234 236
180 176 185 187 184 179 179 183 199 208 216 208 195 197 176 188 202 196 193 184 186 195 188 194 203 212 214 220 194 220 241 254 253 251 237 240 232 240 229 238 241 238 240
166 173 176 181 174 178 182 189 208 211 211 210 196 173 191 207 204 204 201 196 195 189 187 188 206 207 229 215 194 154 176 260 247 239 238 232 233 233 239 238 243 240 245
168 173 180 185 179 178 183 193 214 206 197 210 216 193 192 206 212 198 207 216 192 202 187 188 196 205 220 211 209 171 130 211 175 228 233 232 235 233 240 246 244 250 251
170 175 180 181 178 179 184 205 174 173 190 225 248 203 213 213 223 196 196 207 207 201 186 191 191 208 212 215 228 239 247 172 166 314 227 235 240 240 237 237 239 246 249
171 177 182 187 187 194 200 213 210 170 193 183 183 137 260 208 212 195 206 203 213 208 225 200 196 209 234 232 233 269 234 204 209 163 217 215 235 247 251 252 246 246 243
174 175 183 187 190 195 200 207 200 198 192 146 146 135 130 233 277 229 215 211 217 213 214 202 197 212 233 239 241 278 315 357 220 241 227 193 212 239 239 243 244 244 260